TimeEST,TemperatureF,Dew PointF,Humidity,Sea Level PressureIn,VisibilityMPH,Wind Direction,Wind SpeedMPH,Gust SpeedMPH,PrecipitationIn,Events,Conditions,WindDirDegrees,DateUTC
12:54 AM,46.0,27.0,47,30.23,10.0,SSW,8.1,-,N/A,,Scattered Clouds,200,2011-11-07 05:54:00
1:54 AM,48.0,28.0,46,30.22,10.0,SSW,12.7,-,N/A,,Scattered Clouds,210,2011-11-07 06:54:00
2:54 AM,48.9,28.9,46,30.22,10.0,SW,10.4,-,N/A,,Scattered Clouds,220,2011-11-07 07:54:00
3:54 AM,50.0,30.0,46,30.22,10.0,SSW,13.8,-,N/A,,Mostly Cloudy,210,2011-11-07 08:54:00
4:54 AM,52.0,30.9,45,30.23,10.0,SW,10.4,-,N/A,,Overcast,220,2011-11-07 09:54:00
5:54 AM,53.6,33.8,47,30.22,10.0,SW,10.4,-,N/A,,Overcast,220,2011-11-07 10:54:00
6:54 AM,53.6,35.6,51,30.22,10.0,SW,11.5,-,N/A,,Mostly Cloudy,230,2011-11-07 11:54:00
7:54 AM,55.0,36.0,49,30.25,10.0,SW,11.5,-,N/A,,Mostly Cloudy,230,2011-11-07 12:54:00
8:54 AM,55.9,37.0,49,30.27,10.0,SW,11.5,-,N/A,,Overcast,230,2011-11-07 13:54:00
9:54 AM,59.0,37.4,45,30.25,10.0,SW,15.0,21.9,N/A,,Mostly Cloudy,230,2011-11-07 14:54:00
10:54 AM,57.9,41.0,53,30.25,10.0,SW,13.8,24.2,N/A,,Mostly Cloudy,230,2011-11-07 15:54:00
11:54 AM,59.0,41.0,51,30.22,10.0,SW,17.3,24.2,N/A,,Mostly Cloudy,230,2011-11-07 16:54:00
12:54 PM,59.0,42.1,53,30.22,10.0,WSW,17.3,26.5,N/A,,Mostly Cloudy,250,2011-11-07 17:54:00
1:54 PM,57.9,44.1,60,30.22,10.0,WSW,15.0,26.5,N/A,,Mostly Cloudy,240,2011-11-07 18:54:00
2:54 PM,55.9,45.0,67,30.22,10.0,WSW,16.1,23.0,0.00,Rain,Light Rain,250,2011-11-07 19:54:00
3:54 PM,55.9,46.0,69,30.22,10.0,WSW,13.8,23.0,0.00,,Overcast,250,2011-11-07 20:54:00
4:54 PM,55.9,46.9,72,30.23,10.0,WSW,15.0,-,N/A,,Mostly Cloudy,250,2011-11-07 21:54:00
5:54 PM,55.9,46.0,69,30.24,10.0,WSW,12.7,-,N/A,,Overcast,250,2011-11-07 22:54:00
6:54 PM,55.0,48.0,77,30.24,10.0,WSW,10.4,-,N/A,,Mostly Cloudy,250,2011-11-07 23:54:00
7:54 PM,54.0,46.9,77,30.23,10.0,SW,10.4,-,N/A,,Scattered Clouds,230,2011-11-08 00:54:00
8:54 PM,53.6,46.4,77,30.24,10.0,SW,8.1,-,N/A,,Overcast,230,2011-11-08 01:54:00
9:54 PM,54.0,48.0,80,30.25,10.0,SSW,5.8,-,N/A,,Overcast,210,2011-11-08 02:54:00
10:54 PM,54.0,48.9,83,30.25,10.0,SW,5.8,-,N/A,,Overcast,230,2011-11-08 03:54:00
11:40 PM,53.6,48.2,82,30.24,9.0,SSW,5.8,-,N/A,,Overcast,210,2011-11-08 04:40:00
11:54 PM,53.1,48.9,86,30.24,9.0,SSW,5.8,-,N/A,,Overcast,200,2011-11-08 04:54:00